sat.trackr.live / text

‹ back to catalog

KUIPER-00516

NORAD 69599 · 2026-140H

PAYLOAD ACTIVE UNKNOWN

§ Identity

Operator
Country
US
Launch date
2026-06-17
Launch site
FRGUI
Launch vehicle
Mass (kg)
RCS (m²)

External: N2YO · Heavens-Above · Gunter

§ Orbital elements

Epoch: 2026-09-20T04:00:03.000096Z

Period
95.66 min
Inclination
51.8882°
Eccentricity
0.0006546
Mean motion
15.05348761 rev/d
Perigee alt
545.9 km
Apogee alt
555.0 km
Semi-major
6,928.6 km
B*
-5.8587e-3
RAAN
301.1269°
Arg perigee
202.4658°
Mean anomaly
169.6809°
Rev number
507

§ Raw data

KUIPER-005161 69599U 26140H   26263.16670139 -.00084213  00000+0 -58587-2 0  99972 69599  51.8882 301.1269 0006546 202.4658 169.6809 15.05348761  5073

JSON: /api/v1/satellites/69599 · /tle

For live sub-satellite position, see the globe view (requires WebGL).

§ Visibility from observer

Set your observer location to see the next 7 days of passes ≥ 10°. The values pass through the URL so the page stays shareable.

No JS? Fill the form by hand. The geolocation button needs JavaScript.